Location: Colonia Mina de C?rbuni
(46.1667°N, 22.7167°E)
Time: 05:47:16
(UTC+00:00)

COSMO-SKYMED 1 - Pass Details

Date: 04 February 2023
Orbit: 621 x 623 km, 97.9° (Epoch: 21 March)

Event Time Altitude Azimuth Distance (km) Brightness Sun altitude
Rises 17:23:27 0° 5° (N) 2,918 5.9 -18.5°
Reaches altitude 10° 17:25:47 10° 356° (N) 2,006 5.2 -18.9°
Maximum altitude 17:29:44 34° 292° (WNW) 1,027 4.2 -19.6°
Drops below altitude 10° 17:33:39 10° 227° (SW) 1,991 5.8 -20.3°
Sets 17:35:58 0° 218° (SW) 2,892 6.6 -20.7°
